Find Orbcomm FM111

NORAD ID: 40089 Int'l Des: 2014-040 Owner: ORBC Country: US Constellation: orbcomm operational
LEOCIRCULAR

当前视图

正在加载3D地球...

关于 Orbcomm FM111

正在加载描述...

即将过境

Passes for default location (London). Set your location on the main map for personalized predictions.

高度历史

Loading altitude history...

两行轨道根数

1 40089U 14040D 26150.45506219 .00003543 00000-0 39559-3 0 9995
2 40089 46.9981 131.2236 0027861 57.1785 303.1790 14.88732017641932
Epoch: May 30, 2026 • Age: 16 hours

当前状态

高度 584.4 km
速度 7.58 km/s
星下点 30.21°N, 136.42°W
发射日期 Jul 14, 2014
运行时间 11.8 years
类型 other

技术详情

分类 Payload
质量 172.00 kg
干质量 158.00 kg
总质量 172.00 kg
长度 1.00 m
直径 0.50 m
跨度 13.00 m
形状 Box+pan+ant
制造商 SNVL
平台类型 SN-100A
阶段状态 In Orbit
所有者/国家 ORBC/US

Most Searched